Weather History for KDBQ - November, 2012

Change the Weather History Date:

Thursday, November 1, 2012

  Actual Average Record
Temperature  
Mean Temperature 44 °F 44 °F  
Max Temperature 55 °F 53 °F 78 °F (1933)
Min Temperature 32 °F 35 °F 16 °F (1951)
Degree Days  
Heating Degree Days 21 21  
Month to date heating degree days 21 21  
Since 1 July heating degree days 770 670  
Cooling Degree Days 0 0  
Month to date cooling degree days 0 0  
Year to date cooling degree days 907 643  
Moisture  
Dew Point 27 °F    
Average Humidity 58    
Maximum Humidity 75    
Minimum Humidity 41    
Precipitation  
Precipitation 0.00 in 0.08 in 2.65 in (1971)
Month to date precipitation 0.00 0.08  
Year to date precipitation 20.54 32.18  
Snow  
Snow 0.00 in 0.00 in - ()
Month to date snowfall 0.0 0.0  
Since 1 July snowfall 0.0 T  
Since 1 September snowfall 0.0 T  
Snow Depth 0.00 in    
Sea Level Pressure  
Sea Level Pressure 29.93 in    
Wind  
Wind Speed 9 mph (NW)    
Max Wind Speed 20 mph    
Max Gust Speed 25 mph    
Visibility 10 miles    
Events      
T = Trace of Precipitation, MM = Missing Value Source: NWS Daily Summary

Daily Weather History Graph

Daily Weather History Graph

Search for Another Location

Airport or City:

Trip Planner

Search our weather history database for the weather conditions in past years. The results will help you decide how hot, cold, wet, or windy it might be!

Date:

Astronomy

Nov. 01, 2012 Rise Set
Actual Time 7:36 AM CDT 5:55 PM CDT
Civil Twilight 7:07 AM CDT 6:24 PM CDT
Nautical Twilight 6:34 AM CDT 6:57 PM CDT
Astronomical Twilight 6:01 AM CDT 7:30 PM CDT
Moon 7:50 PM CDT (11/1) 10:12 AM CDT (11/1)
Length of Visible Light 11h 17m
Length of Day
10h 18m
Waning Gibbous, 93% of the Moon is Illuminated
Nov 1
Waning Gibbous
Nov 6
Last Quarter
Nov 13
New
Nov 20
First Quarter
Nov 28
Full

Hourly Weather History & Observations

Time (CDT) Temp. Windchill Dew Point Humidity Pressure Visibility Wind Dir Wind Speed Gust Speed Precip Events Conditions
12:53 AM 37.9 °F 30.9 °F 17.1 °F 43% 29.94 in 10.0 mi NNW 10.4 mph - N/A   Scattered Clouds
1:53 AM 39.9 °F 33.4 °F 19.0 °F 43% 29.94 in 10.0 mi NW 10.4 mph - N/A   Overcast
2:53 AM 41.0 °F 35.2 °F 19.9 °F 43% 29.93 in 10.0 mi NNW 9.2 mph - N/A   Overcast
3:53 AM 41.0 °F 36.4 °F 21.0 °F 45% 29.93 in 10.0 mi WNW 6.9 mph - N/A   Overcast
4:53 AM 37.0 °F 31.0 °F 23.0 °F 57% 29.94 in 10.0 mi West 8.1 mph - N/A   Mostly Cloudy
5:53 AM 34.0 °F - 24.1 °F 67% 29.93 in 10.0 mi Calm Calm - N/A   Overcast
6:53 AM 35.1 °F 31.0 °F 25.0 °F 67% 29.93 in 10.0 mi West 4.6 mph - N/A   Mostly Cloudy
7:53 AM 33.1 °F 27.7 °F 26.1 °F 75% 29.94 in 10.0 mi SW 5.8 mph - N/A   Mostly Cloudy
8:53 AM 37.0 °F 34.5 °F 28.0 °F 70% 29.95 in 10.0 mi SW 3.5 mph - N/A   Mostly Cloudy
9:53 AM 43.0 °F 40.3 °F 28.9 °F 58% 29.94 in 10.0 mi SW 4.6 mph - N/A   Overcast
10:53 AM 48.9 °F - 28.0 °F 44% 29.93 in 10.0 mi NW 5.8 mph - N/A   Overcast
11:53 AM 50.0 °F - 28.9 °F 44% 29.93 in 10.0 mi North 9.2 mph - N/A   Overcast
12:53 PM 53.1 °F - 32.0 °F 45% 29.90 in 10.0 mi NW 9.2 mph - N/A   Partly Cloudy
1:53 PM 54.0 °F - 33.1 °F 45% 29.87 in 10.0 mi NW 11.5 mph - N/A   Clear
2:53 PM 55.0 °F - 32.0 °F 42% 29.86 in 10.0 mi NW 18.4 mph - N/A   Clear
3:53 PM 54.0 °F - 32.0 °F 43% 29.86 in 10.0 mi NNW 13.8 mph - N/A   Clear
4:53 PM 51.1 °F - 30.0 °F 44% 29.88 in 10.0 mi NNW 16.1 mph - N/A   Clear
5:53 PM 46.0 °F 39.9 °F 30.0 °F 54% 29.90 in 10.0 mi NNW 13.8 mph - N/A   Clear
6:53 PM 43.0 °F 36.4 °F 28.9 °F 58% 29.93 in 10.0 mi NNW 12.7 mph - N/A   Clear
7:53 PM 41.0 °F 34.7 °F 28.0 °F 60% 29.95 in 10.0 mi NNW 10.4 mph - N/A   Clear
8:53 PM 39.0 °F 32.3 °F 28.0 °F 65% 29.96 in 10.0 mi North 10.4 mph - N/A   Clear
9:53 PM 37.0 °F 30.4 °F 27.0 °F 67% 29.97 in 10.0 mi North 9.2 mph - N/A   Clear
10:53 PM 36.0 °F 29.0 °F 26.1 °F 67% 29.98 in 10.0 mi North 9.2 mph - N/A   Clear
11:53 PM 35.1 °F 29.3 °F 25.0 °F 67% 29.99 in 10.0 mi North 6.9 mph - N/A   Clear